{"data":{"norad_id":59689,"intl_designator":"2024-086H","name":"STARLINK-32105","alt_names":[],"object_type":"PAYLOAD","status":"ACTIVE","operator":null,"country":"US","launch_date":"2024-05-08","launch_site_code":"AFETR","launch_vehicle":null,"mission":null,"orbit_class":"UNKNOWN","rcs_meters":null,"size_class":null,"mass_kg":null,"dimensions":null,"purposes":["comms"],"wikipedia_slug":null,"has_3d_model":false,"image_url":null,"decayed_at":null,"tle_current":{"epoch":"2026-05-24T17:21:47.555712Z","epoch_age_seconds":92904,"freshness":"FRESH","line1":"1 59689U 24086H   26144.72346708 -.00001425  00000+0 -42277-4 0  9990","line2":"2 59689  43.0033 350.2358 0001093 271.1217  88.9509 15.27576076115745","mean_motion":15.27576076,"eccentricity":0.0001093,"inclination_deg":43.0033,"raan_deg":350.2358,"arg_perigee_deg":271.1217,"mean_anomaly_deg":88.9509,"bstar":-4.2277e-5,"rev_number":11574,"period_min":94.266990863766,"perigee_km":482.3109170079,"apogee_km":483.81077485702,"semimajor_km":6861.1978459325,"source":"CELESTRAK","updated_at":"2026-05-25T13:38:19.024442Z"}}}